Change the Weather History Date:

Sunday, August 4, 2013

  Actual Average Record
Temperature  
Mean Temperature 60 °F -  
Max Temperature 64 °F 61 °F 72 °F (1943)
Min Temperature 57 °F 46 °F 33 °F (1946)
Degree Days  
Heating Degree Days 4    
Growing Degree Days 10 (Base 50)    
Moisture  
Dew Point 50 °F    
Average Humidity 71    
Maximum Humidity 81    
Minimum Humidity 54    
Precipitation  
Precipitation 0.03 in - - ()
Sea Level Pressure  
Sea Level Pressure 29.96 in    
Wind  
Wind Speed 3 mph (WSW)    
Max Wind Speed 7 mph    
Max Gust Speed -    
Visibility 10 miles    
Events Rain    
Averages and records for this station are not official NWS values.
T = Trace of Precipitation, MM = Missing Value Source: NWS Daily Summary

Daily Weather History Graph

Daily Weather History Graph

Search for Another Location

Airport or City:

Trip Planner

Search our weather history database for the weather conditions in past years. The results will help you decide how hot, cold, wet, or windy it might be!

Date:

Astronomy

Aug. 04, 2013 Rise Set
Actual Time 5:57 AM AKDT 10:25 PM AKDT
Civil Twilight 5:00 AM AKDT 11:21 PM AKDT
Nautical Twilight 3:19 AM AKDT 12:57 AM AKDT
Astronomical Twilight Sun does not rise Sun does not rise
Moon 4:03 AM AKDT (8/4) 8:51 PM AKDT (8/4)
Length of Visible Light 18h 20m
Length of Day
16h 28m
Waning Crescent, 4% of the Moon is Illuminated
Aug 4
Waning Crescent
Aug 6
New
Aug 14
First Quarter
Aug 20
Full
Aug 28
Last Quarter

Hourly Weather History & Observations

Time (AKDT) Temp. Dew Point Humidity Pressure Visibility Wind Dir Wind Speed Gust Speed Precip Events Conditions
12:53 AM 59.0 °F 48.9 °F 69% 29.92 in 10.0 mi NNW 3.5 mph - 0.00 in   Overcast
1:53 AM 59.0 °F 48.0 °F 67% 29.93 in 10.0 mi South 4.6 mph - N/A   Overcast
2:53 AM 59.0 °F 48.0 °F 67% 29.93 in 10.0 mi Calm Calm - N/A   Mostly Cloudy
3:53 AM 57.9 °F 48.0 °F 70% 29.92 in 10.0 mi SSW 5.8 mph - N/A   Mostly Cloudy
4:53 AM 57.0 °F 48.0 °F 72% 29.93 in 10.0 mi Calm Calm - N/A   Overcast
5:53 AM 57.9 °F 48.0 °F 70% 29.92 in 10.0 mi Calm Calm - N/A   Overcast
6:53 AM 57.9 °F 48.9 °F 72% 29.93 in 10.0 mi Calm Calm - 0.00 in Rain Light Rain
7:53 AM 59.0 °F 51.1 °F 75% 29.94 in 10.0 mi Calm Calm - 0.00 in   Overcast
8:53 AM 61.0 °F 48.9 °F 64% 29.94 in 10.0 mi Calm Calm - N/A   Overcast
9:53 AM 61.0 °F 50.0 °F 67% 29.95 in 8.0 mi Calm Calm - 0.01 in Rain Light Rain
10:53 AM 62.1 °F 51.1 °F 67% 29.95 in 10.0 mi WSW 4.6 mph - 0.01 in   Overcast
11:53 AM 63.0 °F 50.0 °F 63% 29.96 in 10.0 mi West 6.9 mph - N/A   Overcast
12:53 PM 63.0 °F 48.9 °F 60% 29.96 in 10.0 mi WSW 4.6 mph - N/A   Overcast
1:53 PM 64.0 °F 46.9 °F 54% 29.96 in 10.0 mi SW 3.5 mph - N/A   Mostly Cloudy
2:53 PM 61.0 °F 50.0 °F 67% 29.97 in 10.0 mi WSW 6.9 mph - N/A   Overcast
3:53 PM 61.0 °F 50.0 °F 67% 29.97 in 10.0 mi West 5.8 mph - 0.00 in   Overcast
4:53 PM 60.1 °F 52.0 °F 75% 29.97 in 10.0 mi West 6.9 mph - 0.00 in Rain Light Rain
5:53 PM 59.0 °F 52.0 °F 78% 29.98 in 7.0 mi West 4.6 mph - 0.00 in Rain Light Rain
6:33 PM 59.0 °F 51.8 °F 77% 29.98 in 10.0 mi Calm Calm - 0.01 in   Overcast
6:53 PM 60.1 °F 52.0 °F 75% 29.98 in 10.0 mi Calm Calm - 0.01 in   Overcast
7:01 PM 59.0 °F 51.8 °F 77% 29.98 in 8.0 mi Calm Calm - 0.00 in Rain Light Rain
7:53 PM 60.1 °F 51.1 °F 72% 29.98 in 10.0 mi Calm Calm - 0.00 in   Overcast
8:53 PM 59.0 °F 51.1 °F 75% 29.98 in 10.0 mi Calm Calm - N/A   Overcast
9:53 PM 57.9 °F 51.1 °F 78% 29.99 in 10.0 mi West 3.5 mph - N/A   Overcast
10:53 PM 57.9 °F 52.0 °F 81% 29.99 in 10.0 mi ENE 3.5 mph - 0.00 in   Overcast
11:53 PM 57.0 °F 51.1 °F 81% 29.99 in 10.0 mi ENE 3.5 mph - N/A   Overcast